Wind_Speed
14 15 16 17 18 18 20 20 20 20 21 21 20 20 19 18 17 18 18 16 16 13 12 12 11 11 11 12 12 9 8 6 9 11 16 18 20 20 20 19 19 21 17 10 5 22 5
15 15 16 16 17 18 19 20 20 20 21 21 21 21 21 20 19 17 18 17 16 14 12 12 13 12 12 13 9 9 8 7 8 11 16 18 20 19 18 17 18 14 17 14 14 10 6
16 17 18 18 18 19 20 20 20 21 22 22 22 22 23 22 20 18 17 17 16 15 14 12 14 14 14 13 10 9 8 8 10 13 17 19 19 21 15 16 17 17 16 21 17 15 14
16 17 18 19 20 20 20 21 22 22 22 23 24 24 24 23 22 20 18 17 17 16 16 15 15 17 15 14 11 11 12 11 11 13 17 21 19 23 16 17 10 20 18 23 28 27 23
16 16 17 19 20 21 23 23 24 24 24 25 25 25 25 24 24 22 20 19 19 19 18 18 18 18 16 15 11 11 12 13 13 13 18 22 22 24 24 15 15 19 17 23 17 19 23
19 19 18 19 20 22 22 23 25 26 26 26 26 26 26 26 25 24 23 22 21 20 20 20 18 15 14 15 13 12 14 16 15 15 18 24 28 27 30 23 20 19 25 21 22 23 24
21 22 22 22 22 23 24 25 26 26 27 27 27 27 27 27 26 25 24 24 24 24 22 19 23 21 18 15 14 13 14 17 18 18 21 26 32 37 31 31 24 20 24 22 26 21 23
23 24 24 25 26 26 27 28 29 29 29 29 29 29 28 28 28 27 25 24 25 27 28 24 24 23 20 19 18 15 15 18 22 21 21 25 36 33 30 27 27 26 26 28 27 25 24
25 26 27 28 28 28 28 31 33 32 31 30 29 28 27 27 27 27 25 24 25 27 31 29 25 24 18 20 21 16 14 18 21 23 23 28 23 30 33 32 28 31 31 29 26 21 20
27 27 28 29 30 30 30 36 37 33 31 30 29 28 27 27 27 26 26 24 23 24 22 13 9 9 15 20 18 19 16 17 20 21 22 21 27 28 24 38 31 36 36 33 32 30 23
28 29 30 31 32 33 36 41 40 34 32 31 30 28 27 25 26 26 25 22 20 17 7 5 5 6 9 13 8 9 17 18 20 19 18 18 18 23 34 35 32 37 34 35 36 35 30
30 30 31 31 33 37 42 41 35 33 32 30 29 27 25 25 27 26 24 20 15 7 7 6 6 6 9 9 13 10 10 15 20 20 25 25 24 20 22 26 30 27 29 24 26 28 16
31 31 31 33 38 41 35 33 33 34 30 27 26 25 25 26 27 24 21 17 7 7 6 5 8 9 11 14 12 11 12 15 17 11 20 25 30 29 27 27 20 22 24 6 7 9 8
31 32 33 40 34 32 33 34 33 31 28 26 26 25 26 31 27 22 19 13 8 8 12 19 15 16 18 15 16 17 18 20 21 23 25 17 14 21 24 31 31 27 31 14 7 4 5
35 41 33 26 29 32 33 30 28 26 28 28 28 30 31 25 19 17 14 8 8 9 10 13 16 16 16 15 18 18 22 22 22 20 24 11 14 20 21 20 21 19 28 37 28 31 8
25 22 28 30 31 32 31 30 27 27 30 33 33 26 18 15 14 14 13 14 16 14 16 22 16 13 21 20 18 13 13 11 12 12 17 18 20 25 24 20 21 26 20 11 18 5 8
22 26 29 30 30 30 30 30 30 30 30 33 27 23 16 16 17 18 16 18 21 19 20 11 15 22 23 24 25 22 13 19 21 23 23 20 22 17 15 10 15 14 16 15 19 16 3
22 28 30 29 30 29 30 31 32 30 31 27 26 23 23 20 16 15 16 19 17 11 15 21 25 26 16 14 15 12 15 15 16 19 20 22 17 23 27 30 31 28 23 23 14 9 13
24 29 29 28 29 29 28 29 30 30 32 29 25 20 11 13 12 16 20 19 18 17 12 12 14 11 14 18 13 6 16 19 17 13 8 15 9 11 15 10 8 8 7 10 12 10 18
25 27 26 26 28 27 27 28 29 29 29 28 26 16 16 13 11 12 13 14 11 12 15 18 25 29 28 21 20 17 16 12 17 18 18 19 20 23 15 21 29 36 30 30 22 15 21
24 25 27 27 28 28 28 28 28 28 28 27 23 15 16 12 13 15 15 17 18 20 24 25 31 19 15 22 25 21 23 29 29 26 24 20 24 27 31 32 32 34 38 37 30 31 25
24 24 27 29 29 27 27 26 26 28 28 27 22 18 15 13 13 15 17 19 24 26 30 33 24 23 20 18 18 25 24 27 28 27 28 29 33 31 36 38 39 37 35 35 39 36 40
24 25 28 30 29 28 28 28 28 28 28 26 21 18 18 15 16 19 22 24 26 29 26 20 17 20 25 29 30 29 28 29 30 32 32 33 30 26 30 29 29 25 28 28 31 34 34
24 26 27 29 29 28 29 30 31 30 28 25 22 20 18 17 16 18 20 21 21 22 26 25 24 25 28 27 27 27 28 28 28 28 30 36 34 25 19 20 8 23 27 27 30 30 30
23 25 26 26 26 27 28 30 31 29 26 23 22 20 19 19 18 12 18 18 17 19 21 23 21 20 21 21 26 18 21 19 10 11 18 24 26 16 9 17 24 26 26 24 28 34 34
22 22 24 25 25 27 29 29 29 27 25 22 22 21 20 21 17 16 19 21 19 19 21 21 22 21 23 21 13 6 4 8 5 5 7 10 10 15 9 5 5 6 13 19 24 28 29
24 23 25 24 25 26 29 31 29 24 21 21 23 22 21 21 18 22 14 22 23 24 23 18 18 18 15 11 9 7 8 10 6 7 9 15 14 15 20 15 10 14 13 17 11 15 14
23 23 24 25 24 27 28 29 29 24 19 21 23 24 25 22 18 18 23 22 15 17 16 15 16 12 13 7 5 6 8 9 10 13 13 13 11 13 10 9 7 8 18 11 19 20 17
23 22 21 22 25 28 27 27 26 22 21 21 23 24 23 21 19 19 14 10 16 18 17 18 16 14 7 8 8 10 14 21 26 25 22 12 12 17 16 19 27 40 30 26 25 22 22
Wind_Direction
15 13 10 8 4 1 358 359 1 1 0 359 355 351 347 344 339 340 340 334 335 331 319 314 310 318 329 324 310 290 295 232 227 218 208 212 209 215 219 229 226 233 239 245 241 211 236
3 2 2 360 356 354 352 350 351 351 351 350 348 346 346 346 341 337 333 332 328 330 318 306 301 295 304 318 298 262 260 236 233 216 211 211 214 213 228 230 232 238 226 240 248 243 227
354 353 351 350 349 347 345 342 342 341 339 339 339 339 339 340 339 336 329 324 322 319 317 306 297 291 288 297 301 260 235 228 234 215 208 210 218 205 221 230 245 233 229 232 230 226 230
350 348 346 344 341 340 338 336 334 333 331 330 331 332 332 332 332 331 327 320 314 311 308 304 296 290 288 285 285 255 233 230 228 222 214 208 213 209 209 209 226 220 230 234 234 236 235
343 343 342 342 340 338 335 333 331 329 327 326 326 325 325 324 324 323 321 318 311 307 303 299 293 285 284 276 268 263 234 228 228 225 219 209 204 214 211 211 213 219 229 229 229 229 231
336 336 337 337 336 335 333 331 329 327 325 324 322 320 320 318 318 317 316 313 309 304 301 297 288 280 272 265 264 262 239 229 234 224 223 212 206 212 218 212 213 213 228 235 236 236 236
335 333 334 333 333 332 331 329 327 324 323 322 322 320 320 318 316 313 312 310 308 303 299 295 284 278 270 268 252 254 240 232 229 231 226 217 214 213 218 222 231 235 230 243 248 248 251
331 329 329 330 330 330 329 328 325 322 321 321 322 321 320 318 315 313 311 308 305 302 297 294 281 270 256 250 245 247 238 232 232 233 227 222 226 231 228 229 234 240 240 239 248 251 254
322 322 322 322 323 325 326 326 324 320 317 317 317 317 317 316 315 312 310 309 307 307 304 300 278 258 241 242 241 241 243 234 240 236 236 234 248 237 231 233 233 239 240 245 243 252 258
315 316 316 316 317 316 320 323 320 315 312 311 311 311 313 316 314 314 312 311 311 315 309 300 281 247 229 235 246 236 237 239 237 245 242 244 243 243 242 239 239 241 243 248 250 249 249
311 313 312 313 314 315 316 318 315 311 311 310 310 310 311 317 316 315 311 311 314 322 322 303 263 246 234 215 239 236 235 242 248 252 245 250 259 242 242 251 242 250 250 253 255 250 251
312 313 312 314 315 315 316 315 311 311 313 311 311 310 311 317 322 316 311 311 314 315 260 295 291 268 254 246 249 250 248 246 251 255 256 254 256 247 252 258 251 251 249 246 246 248 237
311 312 314 317 316 317 316 316 313 313 313 311 311 310 311 313 317 312 306 305 288 210 305 305 306 299 280 278 268 260 271 262 255 255 259 262 258 258 256 255 240 237 236 238 228 200 243
310 314 317 314 316 316 315 314 316 317 313 313 309 306 304 310 312 306 299 287 234 268 285 298 304 294 292 287 275 278 274 268 261 253 258 261 267 259 254 247 254 248 233 219 258 212 235
311 310 315 318 319 321 320 318 316 315 313 311 308 308 307 312 312 307 297 238 263 276 283 307 310 307 294 280 272 279 277 274 273 259 243 252 251 259 247 251 241 240 221 247 242 251 270
321 327 325 322 323 322 321 321 319 319 320 323 325 328 332 323 321 309 287 263 266 273 279 297 301 284 286 286 295 308 298 290 287 279 271 265 260 253 245 254 238 246 255 234 218 242 245
318 329 329 325 326 328 323 320 317 314 320 324 329 329 325 317 312 299 283 284 293 290 287 283 296 288 260 277 275 277 278 279 280 280 284 282 282 278 263 270 281 280 258 256 252 251 279
317 327 328 329 331 329 325 321 321 323 323 327 328 322 314 310 300 293 298 299 297 274 279 296 296 283 302 320 308 289 281 274 283 293 294 284 285 285 280 278 275 266 268 268 274 292 304
319 326 327 328 327 327 327 328 329 330 329 332 332 331 329 308 301 295 296 289 284 287 293 280 281 307 309 307 300 288 281 280 276 281 281 303 286 319 322 289 260 241 231 267 295 298 274
317 321 324 326 325 330 331 333 333 333 334 337 336 334 322 314 300 304 302 296 285 293 279 273 280 283 279 275 261 273 270 268 292 288 295 293 280 276 263 269 288 291 287 293 293 274 278
314 319 324 326 330 335 335 337 337 338 337 339 340 334 327 305 289 288 287 282 286 287 283 289 295 283 277 280 274 278 274 274 272 276 281 287 280 282 284 284 282 281 284 288 281 278 262
317 321 326 330 332 334 335 339 339 336 337 336 334 327 318 309 293 286 282 291 295 299 302 304 295 271 266 282 285 289 291 290 288 288 283 281 277 278 276 280 281 283 282 279 281 281 279
317 321 327 330 331 332 335 337 338 335 339 339 334 327 316 309 298 293 292 294 294 297 300 298 284 274 277 279 279 277 280 280 279 282 283 277 271 272 271 279 282 276 275 278 281 280 284
318 322 327 329 329 334 336 337 337 336 338 339 337 333 324 319 312 304 297 296 297 297 294 298 291 289 293 293 291 290 286 285 281 278 270 266 267 267 275 281 260 269 272 271 269 272 274
314 317 323 325 328 332 333 336 335 337 337 339 339 338 334 331 324 313 309 309 307 299 298 302 306 302 306 311 305 306 305 297 298 275 259 262 261 250 251 247 272 272 271 271 273 273 273
305 315 320 322 327 329 331 335 335 336 334 339 339 340 341 339 326 323 317 314 318 318 313 311 305 301 297 301 307 269 273 295 284 272 283 282 294 237 232 243 231 300 288 284 282 285 282
306 313 315 320 326 328 328 333 333 334 333 338 339 340 341 337 325 319 320 318 314 313 315 321 321 315 315 306 288 269 268 264 270 266 282 281 292 276 270 260 273 277 297 290 261 284 267
300 307 316 318 325 325 327 331 330 330 335 338 338 337 335 333 322 314 315 316 324 321 325 327 329 323 318 314 282 282 276 273 273 268 288 296 292 283 291 251 248 346 335 333 315 310 304
294 301 311 317 323 324 325 328 326 324 329 335 337 334 332 331 320 319 328 338 324 319 318 318 319 317 288 287 287 296 283 284 283 286 291 275 272 275 270 260 275 295 300 288 309 304 290
Height
3130 3127 3125 3122 3120 3117 3115 3112 3108 3104 3101 3099 3096 3092 3088 3084 3081 3078 3075 3072 3068 3065 3062 3060 3058 3056 3054 3052 3051 3049 3048 3048 3049 3050 3052 3054 3055 3058 3059 3061 3064 3064 3067 3070 3071 3073 3076
3131 3128 3125 3122 3119 3117 3114 3111 3107 3104 3101 3098 3095 3092 3087 3083 3080 3077 3073 3070 3067 3064 3061 3058 3056 3055 3053 3051 3049 3047 3047 3047 3046 3049 3051 3053 3054 3058 3059 3061 3063 3064 3066 3070 3071 3073 3074
3132 3129 3126 3123 3120 3117 3114 3110 3107 3104 3101 3098 3094 3090 3086 3082 3078 3074 3071 3068 3065 3062 3059 3056 3054 3052 3051 3050 3047 3046 3046 3046 3046 3047 3049 3051 3054 3056 3057 3060 3061 3064 3065 3067 3069 3072 3071
3131 3128 3126 3123 3120 3116 3113 3110 3107 3103 3099 3096 3092 3087 3084 3080 3076 3072 3069 3065 3062 3059 3057 3055 3052 3050 3048 3046 3045 3044 3044 3044 3044 3045 3046 3049 3052 3054 3055 3057 3059 3061 3063 3062 3067 3068 3070
3130 3127 3124 3121 3118 3115 3112 3109 3105 3101 3097 3093 3089 3085 3081 3077 3073 3069 3066 3063 3059 3057 3053 3051 3049 3047 3046 3044 3043 3042 3042 3043 3043 3044 3043 3045 3049 3052 3053 3054 3056 3057 3057 3059 3062 3063 3065
3129 3126 3122 3119 3116 3113 3110 3106 3102 3099 3094 3090 3086 3082 3078 3074 3070 3066 3062 3059 3056 3052 3050 3047 3044 3046 3043 3042 3040 3039 3039 3040 3041 3042 3043 3044 3044 3046 3048 3049 3048 3050 3054 3055 3056 3058 3059
3128 3125 3122 3118 3114 3110 3107 3103 3099 3095 3091 3087 3083 3079 3075 3071 3066 3062 3059 3055 3053 3049 3045 3043 3040 3038 3037 3037 3037 3036 3036 3036 3037 3039 3038 3041 3041 3036 3042 3046 3050 3051 3050 3052 3052 3055 3055
3126 3124 3120 3117 3113 3109 3105 3101 3096 3092 3087 3083 3079 3075 3071 3067 3063 3059 3055 3051 3047 3043 3037 3036 3033 3031 3032 3032 3033 3032 3033 3034 3033 3034 3035 3037 3032 3038 3042 3045 3047 3048 3048 3046 3049 3050 3050
3124 3120 3118 3114 3110 3106 3101 3097 3092 3087 3083 3079 3074 3070 3066 3062 3059 3055 3052 3048 3044 3039 3031 3029 3024 3023 3027 3028 3028 3030 3031 3031 3030 3030 3030 3031 3032 3037 3039 3040 3042 3044 3044 3045 3047 3046 3046
3119 3116 3113 3110 3106 3101 3097 3092 3087 3082 3077 3073 3069 3065 3062 3058 3056 3051 3048 3045 3042 3037 3028 3023 3020 3021 3022 3023 3024 3025 3027 3029 3029 3029 3029 3028 3029 3031 3033 3034 3038 3038 3040 3043 3044 3043 3041
3115 3112 3108 3105 3101 3097 3092 3086 3081 3076 3072 3068 3064 3061 3056 3053 3051 3048 3046 3042 3040 3039 3037 3026 3023 3021 3022 3024 3023 3023 3024 3024 3024 3026 3028 3026 3025 3027 3027 3026 3033 3033 3037 3037 3037 3037 3037
3110 3107 3104 3100 3095 3091 3086 3080 3075 3071 3067 3063 3059 3056 3053 3050 3048 3045 3041 3040 3040 3042 3032 3025 3023 3021 3022 3022 3022 3022 3022 3022 3022 3023 3023 3022 3023 3022 3023 3025 3027 3030 3030 3031 3030 3030 3022
3105 3102 3099 3095 3090 3085 3078 3073 3069 3064 3061 3058 3054 3051 3049 3045 3042 3040 3038 3038 3039 3034 3030 3026 3023 3022 3022 3021 3020 3020 3020 3020 3020 3019 3016 3016 3015 3016 3018 3019 3019 3022 3022 3024 3021 3018 3011
3099 3097 3093 3088 3082 3077 3072 3067 3064 3059 3055 3053 3049 3046 3043 3040 3038 3035 3034 3035 3034 3029 3027 3025 3023 3021 3021 3021 3018 3017 3016 3014 3014 3013 3012 3011 3009 3008 3009 3010 3012 3013 3015 3014 3009 3008 3005
3096 3092 3086 3081 3077 3072 3067 3062 3058 3054 3050 3047 3044 3041 3037 3034 3033 3032 3032 3031 3029 3027 3026 3024 3023 3019 3018 3018 3016 3013 3011 3010 3008 3008 3008 3004 3000 3001 3002 3004 3007 3004 3004 3005 3004 3003 3000
3090 3087 3083 3079 3074 3069 3063 3059 3055 3051 3046 3042 3039 3036 3032 3030 3029 3029 3027 3025 3025 3025 3022 3021 3021 3019 3018 3016 3014 3012 3010 3007 3005 3004 3003 2999 2997 2996 2998 2997 2999 2998 3000 2999 2997 2994 2989
3089 3085 3080 3076 3070 3065 3060 3055 3051 3047 3044 3039 3035 3032 3029 3027 3026 3026 3024 3023 3021 3022 3020 3019 3017 3015 3012 3010 3008 3008 3005 3006 3004 3003 3001 2998 2996 2994 2994 2994 2995 2995 2992 2993 2991 2989 2982
3084 3080 3076 3071 3066 3061 3056 3051 3046 3042 3041 3036 3032 3029 3025 3023 3024 3022 3022 3020 3019 3018 3017 3015 3013 3010 3009 3006 3004 3004 3002 3003 3001 3000 2999 2997 2992 2990 2990 2991 2990 2990 2990 2992 2993 2985 2979
3079 3075 3072 3067 3062 3057 3052 3047 3042 3038 3034 3029 3026 3024 3021 3020 3018 3017 3017 3017 3015 3014 3013 3011 3009 3008 3005 3003 3002 2998 2998 2997 2995 2995 2994 2993 2990 2985 2984 2984 2982 2982 2984 2986 2986 2983 2979
3075 3071 3067 3064 3059 3054 3049 3044 3040 3035 3030 3027 3021 3020 3018 3016 3015 3013 3010 3010 3011 3010 3008 3007 3006 3004 3001 2998 2997 2993 2992 2992 2991 2991 2992 2990 2988 2988 2986 2985 2985 2979 2979 2980 2983 2981 2977
3071 3068 3064 3060 3058 3051 3047 3043 3038 3032 3026 3024 3020 3017 3015 3014 3012 3011 3009 3008 3006 3004 3003 3002 2999 2997 2995 2991 2990 2988 2986 2985 2985 2986 2986 2986 2981 2981 2978 2978 2977 2975 2972 2971 2972 2971 2970
3068 3063 3060 3057 3053 3048 3044 3040 3035 3029 3024 3021 3018 3015 3012 3010 3008 3007 3006 3004 3002 3000 2998 2994 2994 2992 2991 2988 2987 2983 2982 2981 2980 2980 2979 2978 2974 2974 2968 2970 2968 2964 2965 2965 2962 2961 2958
3064 3061 3057 3053 3048 3045 3041 3036 3032 3025 3020 3016 3014 3011 3008 3008 3005 3003 3002 3000 2997 2994 2991 2990 2987 2984 2984 2982 2980 2978 2976 2974 2974 2973 2972 2971 2969 2967 2958 2962 2960 2954 2955 2955 2953 2953 2952
3060 3058 3054 3050 3046 3042 3037 3033 3028 3024 3017 3014 3011 3007 3005 3003 3001 2998 2995 2993 2991 2990 2985 2984 2983 2979 2977 2975 2972 2970 2967 2965 2964 2963 2962 2959 2961 2961 2954 2957 2952 2946 2947 2946 2944 2945 2944
3055 3054 3050 3046 3042 3038 3034 3029 3025 3020 3014 3010 3008 3006 3002 2998 2996 2994 2991 2988 2986 2986 2982 2978 2977 2975 2971 2969 2966 2962 2960 2957 2954 2953 2952 2952 2954 2953 2952 2948 2942 2943 2943 2942 2938 2937 2938
3050 3048 3045 3042 3039 3035 3030 3026 3021 3017 3012 3007 3005 3002 3000 2996 2993 2990 2987 2984 2981 2980 2979 2976 2972 2970 2967 2965 2964 2961 2959 2956 2954 2952 2950 2949 2948 2949 2947 2945 2944 2938 2937 2934 2933 2927 2930
3046 3045 3042 3038 3034 3031 3026 3022 3018 3015 3010 3006 3002 2999 2997 2993 2991 2987 2983 2982 2979 2976 2973 2970 2968 2966 2963 2962 2960 2959 2957 2955 2953 2949 2948 2947 2945 2943 2942 2940 2934 2932 2930 2928 2929 2929 2923
3042 3040 3038 3036 3030 3027 3022 3018 3014 3010 3007 3003 3000 2996 2993 2989 2987 2984 2980 2978 2975 2973 2970 2969 2968 2963 2962 2961 2960 2958 2955 2953 2950 2948 2946 2946 2944 2942 2938 2935 2931 2927 2928 2928 2925 2920 2918
3037 3035 3032 3030 3027 3023 3018 3014 3012 3007 3003 3000 2997 2993 2990 2986 2984 2980 2977 2975 2974 2971 2969 2966 2965 2963 2962 2960 2959 2957 2954 2951 2947 2943 2942 2941 2940 2938 2936 2930 2924 2922 2923 2921 2918 2916 2913